User: anonymous   Login
Location: Unspecified
(0.0000°N, 0.0000°E)
Time: 19:02:31
(UTC+00:00)
Language:

SUPERVIEW NEO-2 03 - Orbit

View from above orbital plane
View from above orbital plane
View from above satellite
View from above satellite

Ground track
Ground track

The orbit is defined by the following mean orbital elements,

1 62079U          26145.40144477 +.00000000 +00000-0 +14197-4 0 00002
2 62079  97.4393 153.0567 0001571  86.6868 273.4546 15.19719339    03
Epoch (UTC): 25 May 2026 09:38:04
Eccentricity: 0.0001571
inclination: 97.4393°
perigee height: 506 km
apogee height: 508 km
right ascension of ascending node: 153.0567°
argument of perigee: 86.6868°
revolutions per day: 15.19719339
mean anomaly at epoch: 273.4546°

The dashed part of the orbit path shows where the satellite is in the earth's shadow,  

DLR